[[{"header":{"parameterUnit":"m.s-1","parameterCategory":1,"la1":30.2991,"la2":30.254,"lo1":-89.0895,"lo2":-89.0444,"dy":0.0017,"dx":0.0017,"nx":28,"ny":28,"refTime":"2023-07-29T03:00:00:Z","depth":0,"parameterNumber":2,"parameterNumberName":"U-component_of_WINDS"},"data":[0,0,0,0,0,0,0,0,0,0,0,0,0,0,0,0,0,0,0,0,0,0,0,0,0,0,0,0,0,0,0,0,0,0,0,0,0,0,0,0,0,0,0,0,0,0,0,0,0,0,0,0,0,0,0,0,0,0,1.2545,1.2545,0,1.2558,1.2559,1.2559,1.2531,1.253,1.2529,1.2528,1.2544,1.2545,1.2547,0,0,0,0,0,0,0,0,0,0,0,0,0,1.2496,1.2497,1.2545,1.2545,1.2545,1.2558,1.2559,1.2559,1.2531,1.253,1.2529,1.2528,1.2544,1.2545,1.2547,0,0,0,0,0,0,0,0,0,0,0,0,0,1.2515,1.2498,1.2545,1.2533,1.2532,1.2558,1.2559,1.2559,1.2531,1.253,1.2529,1.2527,1.2543,1.2545,1.2547,1.2586,0,0,1.2553,1.2554,0,0,0,0,0,0,0,0,1.2514,1.2516,1.2534,1.2534,1.2533,1.2542,1.2547,1.2568,1.2532,1.2532,1.2528,1.2527,1.2545,1.2546,1.2552,1.2587,1.2587,1.2553,1.2554,1.2555,1.2555,0,0,0,0,0,0,0,1.2512,1.2516,1.255,1.2535,1.2534,1.2527,1.2528,1.2551,1.2546,1.2532,1.253,1.2531,1.2544,1.255,1.2552,1.2588,1.2553,1.2555,1.2556,1.2557,1.2655,1.2657,0,0,0,0,0,0,1.2512,1.2515,1.255,1.2551,1.252,1.2529,1.2531,1.254,1.2545,1.2545,1.2533,1.253,1.2547,1.255,1.2552,1.2598,1.2555,1.2557,1.2558,1.2654,1.2656,1.2657,0,0,0,0,0,0,1.2511,1.2516,1.2549,1.2532,1.2536,1.2532,1.2543,1.2541,1.2547,1.2546,1.2545,1.254,1.2546,1.255,1.2578,1.2599,1.2558,1.2559,1.2652,1.2654,1.2656,1.2691,0,0,0,0,0,0,1.251,1.2516,1.253,1.2533,1.2537,1.2574,1.2544,1.2542,1.255,1.2547,1.2553,1.2552,1.2546,1.2575,1.258,1.2601,1.2561,1.265,1.2653,1.2656,1.2688,1.2694,1.2699,0,0,0,0,0,1.2508,1.254,1.2531,1.2535,1.2555,1.2575,1.2578,1.2569,1.2552,1.2567,1.2566,1.2552,1.2595,1.2578,1.2583,1.2605,1.2649,1.2652,1.2655,1.2685,1.2693,1.2699,0,0,0,0,0,0,1.2541,1.254,1.253,1.2563,1.2569,1.257,1.2589,1.2577,1.2589,1.2586,1.2575,1.2576,1.2606,1.2608,1.2589,1.2643,1.2619,1.2624,1.264,1.2648,1.2653,1.2652,1.2562,0,0,0,0,0,1.2551,1.2567,1.2566,1.2595,1.2599,1.2593,1.2602,1.2594,1.2601,1.2604,1.2605,1.2612,1.2627,1.2637,1.2651,1.2688,1.2689,1.2705,1.2711,1.2716,1.272,1.2739,1.2747,1.2668,1.2668,1.2668,0,0,1.2574,1.2576,1.2587,1.2602,1.2606,1.2623,1.2596,1.2615,1.2628,1.2607,1.2633,1.2634,1.2641,1.2674,1.2688,1.2676,1.2742,1.272,1.2724,1.2725,1.2743,1.2751,1.2758,1.267,1.267,1.267,0,0,1.2624,1.2627,1.2651,1.2656,1.2662,1.2658,1.2664,1.2667,1.2666,1.2692,1.2676,1.2692,1.2718,1.2724,1.273,1.2782,1.277,1.2787,1.2817,1.2836,1.2842,1.2848,1.2866,1.2873,1.2791,1.2791,1.2791,0,1.2652,1.2677,1.2666,1.2686,1.2693,1.2674,1.2699,1.2704,1.2714,1.272,1.2706,1.2739,1.2742,1.2776,1.2788,1.2794,1.2801,1.2786,1.2842,1.2847,1.2852,1.287,1.2877,1.2793,1.2793,1.2793,1.2792,0,1.2711,1.2728,1.2747,1.2757,1.2767,1.2789,1.2782,1.2793,1.2784,1.2782,1.2809,1.2812,1.2826,1.2833,1.2826,1.2866,1.2858,1.2844,1.282,1.2862,1.2878,1.2885,1.2796,1.2795,1.2795,1.2794,0,0,1.2782,1.2785,1.2792,1.2796,1.2801,1.2815,1.2837,1.285,1.2859,1.2867,1.2885,1.2908,1.2894,1.2901,1.2894,1.2911,1.2951,1.2894,1.2894,1.2905,1.2996,1.3007,1.3015,1.2943,1.2944,1.2945,1.2995,0,1.2832,1.2869,1.2859,1.2896,1.2912,1.2894,1.2912,1.2918,1.2916,1.293,1.2928,1.2944,1.2924,1.2929,1.2944,1.2943,1.297,1.2939,1.296,1.2961,1.2959,1.3023,1.3036,1.3083,1.3001,1.3003,1.3003,0,1.2895,1.2905,1.2943,1.2945,1.2951,1.2969,1.298,1.2993,1.2998,1.2996,1.3004,1.2993,1.3015,1.299,1.302,1.3,1.3008,1.3008,1.301,1.3012,1.2985,1.3027,1.3097,1.3105,1.3013,1.3012,1.3012,0,1.2944,1.2966,1.2992,1.2996,1.2999,1.3011,1.3013,1.3017,1.3026,1.3035,1.3041,1.3053,1.306,1.307,1.3063,1.3046,1.3094,1.3069,1.3093,1.3094,1.3105,1.3104,1.3177,1.3109,1.3109,1.3109,1.3109,0,1.3001,1.3025,1.3014,1.303,1.3056,1.3045,1.3072,1.3071,1.3075,1.3091,1.3076,1.3091,1.308,1.3095,1.3089,1.3115,1.3118,1.3117,1.3116,1.3119,1.3119,1.3124,1.3121,1.3111,1.3111,1.311,1.311,0,1.306,1.3053,1.308,1.308,1.3081,1.31,1.3101,1.3116,1.3112,1.3132,1.3136,1.3131,1.3148,1.3141,1.3159,1.3155,1.3188,1.3182,1.3186,1.3184,1.3208,1.3206,1.3288,1.3298,1.3223,1.3224,1.3225,0,1.3097,1.3115,1.3117,1.3126,1.3129,1.3144,1.3152,1.3141,1.3151,1.3158,1.3172,1.3186,1.3198,1.3224,1.3222,1.3236,1.323,1.3257,1.3232,1.3234,1.3231,1.323,1.3231,1.3263,1.3264,1.3264,1.3265,0,1.3163,1.3159,1.3171,1.3182,1.3192,1.32,1.3207,1.3216,1.3205,1.3217,1.3232,1.3241,1.3258,1.3273,1.3284,1.3287,1.3274,1.3273,1.3279,1.3283,1.3284,1.3284,1.32,1.3271,1.3271,1.327,1.327,1.327,1.3213,1.3228,1.3231,1.3245,1.3249,1.3256,1.327,1.3268,1.328,1.3293,1.3286,1.3305,1.3309,1.3323,1.3327,1.3342,1.3331,1.334,1.3343,1.3345,1.3348,1.3282,1.3344,1.3344,1.3344,1.3343,1.3343,0,1.3279,1.328,1.3293,1.3302,1.3313,1.33,1.3306,1.3317,1.3333,1.3338,1.3349,1.3367,1.3381,1.338,1.3393,1.3405,1.34,1.3409,1.3408,1.3409,1.3357,1.335,1.3413,1.3413,1.3413,1.3413,1.3413,1.3413,1.3314,1.3339,1.3335,1.3362,1.3362,1.338,1.3385,1.3391,1.3395,1.3416,1.3427,1.3426,1.3429,1.3441,1.3454,1.3453,1.3459,1.347,1.3467,1.3419,1.3412,1.3406,1.34,1.3471,1.3471,1.3518,1.3518,1.3519]},{"header":{"parameterUnit":"m.s-1","parameterCategory":1,"la1":30.2991,"la2":30.254,"lo1":-89.0895,"lo2":-89.0444,"dy":0.0017,"dx":0.0017,"nx":28,"ny":28,"refTime":"2023-07-29T03:00:00:Z","depth":0,"parameterNumber":3,"parameterNumberName":"V-component_of_WINDS"},"data":[0,0,0,0,0,0,0,0,0,0,0,0,0,0,0,0,0,0,0,0,0,0,0,0,0,0,0,0,0,0,0,0,0,0,0,0,0,0,0,0,0,0,0,0,0,0,0,0,0,0,0,0,0,0,0,0,0,0,-0.0499,-0.0499,0,-0.0477,-0.0477,-0.0476,-0.0464,-0.0464,-0.0464,-0.0464,-0.0441,-0.0441,-0.044,0,0,0,0,0,0,0,0,0,0,0,0,0,-0.0533,-0.0533,-0.0499,-0.0499,-0.0499,-0.0477,-0.0477,-0.0476,-0.0464,-0.0464,-0.0464,-0.0464,-0.0442,-0.0441,-0.044,0,0,0,0,0,0,0,0,0,0,0,0,0,-0.0516,-0.0533,-0.0499,-0.049,-0.0489,-0.0477,-0.0477,-0.0476,-0.0464,-0.0464,-0.0464,-0.0464,-0.0442,-0.0441,-0.044,-0.0437,0,0,-0.0438,-0.0437,0,0,0,0,0,0,0,0,-0.0517,-0.0514,-0.0492,-0.0491,-0.0489,-0.0473,-0.0481,-0.0463,-0.0464,-0.0473,-0.0464,-0.0464,-0.0452,-0.045,-0.0446,-0.0435,-0.0435,-0.0438,-0.0437,-0.0437,-0.0437,0,0,0,0,0,0,0,-0.0518,-0.0515,-0.0491,-0.0491,-0.049,-0.0487,-0.0485,-0.0477,-0.0463,-0.0472,-0.0471,-0.0469,-0.0451,-0.0447,-0.0446,-0.0434,-0.0438,-0.0437,-0.0436,-0.0436,-0.0421,-0.0421,0,0,0,0,0,0,-0.052,-0.0516,-0.0491,-0.049,-0.0503,-0.0487,-0.0484,-0.0478,-0.0463,-0.0461,-0.0469,-0.0468,-0.0449,-0.0447,-0.0445,-0.0441,-0.0437,-0.0436,-0.0436,-0.0421,-0.0421,-0.0421,0,0,0,0,0,0,-0.0521,-0.0518,-0.0492,-0.0503,-0.0499,-0.0486,-0.048,-0.0478,-0.0474,-0.0461,-0.0458,-0.0467,-0.0449,-0.0446,-0.0439,-0.044,-0.0436,-0.0435,-0.0421,-0.0421,-0.0421,-0.0432,0,0,0,0,0,0,-0.0522,-0.0519,-0.0516,-0.0503,-0.0499,-0.0486,-0.048,-0.0478,-0.0472,-0.0471,-0.0458,-0.0456,-0.0448,-0.044,-0.0438,-0.0439,-0.0434,-0.0421,-0.0421,-0.0421,-0.0431,-0.0432,-0.0433,0,0,0,0,0,-0.0523,-0.052,-0.0516,-0.0513,-0.0496,-0.0486,-0.0484,-0.0474,-0.0472,-0.047,-0.0463,-0.0457,-0.044,-0.044,-0.0437,-0.0437,-0.0421,-0.0421,-0.0421,-0.0431,-0.0432,-0.0433,0,0,0,0,0,0,-0.0534,-0.0518,-0.0514,-0.0506,-0.0497,-0.0484,-0.0481,-0.0476,-0.0468,-0.0467,-0.0457,-0.0454,-0.0448,-0.0442,-0.0442,-0.0434,-0.043,-0.043,-0.0438,-0.0439,-0.044,-0.0442,-0.0434,0,0,0,0,0,-0.0535,-0.0528,-0.0515,-0.0509,-0.0505,-0.0494,-0.0489,-0.0483,-0.0474,-0.0471,-0.0462,-0.0454,-0.0447,-0.0443,-0.0435,-0.043,-0.0428,-0.0429,-0.043,-0.0431,-0.0431,-0.0429,-0.043,-0.0422,-0.0422,-0.0422,0,0,-0.0538,-0.0528,-0.0524,-0.0511,-0.0504,-0.0498,-0.0491,-0.0484,-0.048,-0.047,-0.0463,-0.0456,-0.0447,-0.0441,-0.0438,-0.0436,-0.0433,-0.0431,-0.0432,-0.0431,-0.0429,-0.043,-0.0431,-0.0422,-0.0422,-0.0422,0,0,-0.0539,-0.0531,-0.0526,-0.0519,-0.0509,-0.0502,-0.0501,-0.0488,-0.0484,-0.0477,-0.0469,-0.0464,-0.0452,-0.0446,-0.0441,-0.0443,-0.0438,-0.0441,-0.0446,-0.0444,-0.0445,-0.0445,-0.0447,-0.0447,-0.0441,-0.0441,-0.0441,0,-0.0544,-0.0534,-0.0524,-0.0518,-0.0513,-0.0504,-0.05,-0.0494,-0.0481,-0.0478,-0.0476,-0.0462,-0.0455,-0.0448,-0.0449,-0.0445,-0.0444,-0.0442,-0.0445,-0.0446,-0.0446,-0.0448,-0.0448,-0.0442,-0.0441,-0.0441,-0.0441,0,-0.0541,-0.0534,-0.0531,-0.052,-0.0515,-0.0509,-0.05,-0.0496,-0.0491,-0.0484,-0.0478,-0.0469,-0.0461,-0.0459,-0.0453,-0.0452,-0.0451,-0.0447,-0.0443,-0.0448,-0.0449,-0.0449,-0.0442,-0.0442,-0.0442,-0.0442,0,0,-0.0547,-0.0532,-0.0531,-0.0526,-0.0515,-0.051,-0.0505,-0.0497,-0.0494,-0.0487,-0.0483,-0.0474,-0.0471,-0.0466,-0.046,-0.0458,-0.0462,-0.0454,-0.0454,-0.0457,-0.0461,-0.0465,-0.0465,-0.0458,-0.0458,-0.0458,-0.0462,0,-0.0547,-0.0538,-0.053,-0.0524,-0.0518,-0.0511,-0.0507,-0.05,-0.0494,-0.0489,-0.0483,-0.0477,-0.0473,-0.047,-0.0468,-0.0462,-0.0462,-0.0461,-0.0456,-0.0455,-0.0458,-0.0466,-0.0469,-0.0473,-0.0463,-0.0463,-0.0463,0,-0.0546,-0.0539,-0.0533,-0.0523,-0.0521,-0.0517,-0.051,-0.0505,-0.0498,-0.0494,-0.0489,-0.0484,-0.0479,-0.0476,-0.047,-0.047,-0.0467,-0.0464,-0.0464,-0.0463,-0.0459,-0.0466,-0.0474,-0.0475,-0.0463,-0.0463,-0.0463,0,-0.0552,-0.0542,-0.0537,-0.0533,-0.0522,-0.052,-0.0515,-0.0508,-0.0504,-0.0498,-0.0496,-0.049,-0.0486,-0.0482,-0.0475,-0.0473,-0.0471,-0.0466,-0.0468,-0.0469,-0.0468,-0.0468,-0.0477,-0.0466,-0.0466,-0.0466,-0.0466,0,-0.0554,-0.055,-0.054,-0.0537,-0.0533,-0.0525,-0.0522,-0.0516,-0.051,-0.0507,-0.05,-0.0497,-0.0488,-0.0484,-0.0479,-0.0476,-0.0474,-0.0471,-0.047,-0.0472,-0.0473,-0.0471,-0.047,-0.0466,-0.0466,-0.0466,-0.0466,0,-0.056,-0.0552,-0.0547,-0.0537,-0.0535,-0.0533,-0.0525,-0.0522,-0.0517,-0.0513,-0.0512,-0.0503,-0.0499,-0.0491,-0.0484,-0.0481,-0.0479,-0.0477,-0.0482,-0.0481,-0.0484,-0.0484,-0.0491,-0.0492,-0.048,-0.048,-0.048,0,-0.0561,-0.0559,-0.0549,-0.0547,-0.0542,-0.0538,-0.0535,-0.0527,-0.0524,-0.0516,-0.0515,-0.051,-0.0505,-0.0499,-0.0492,-0.0488,-0.0485,-0.0488,-0.0484,-0.0487,-0.0486,-0.0487,-0.0487,-0.0489,-0.0489,-0.0489,-0.0489,0,-0.0565,-0.0562,-0.0557,-0.0552,-0.0548,-0.0543,-0.0538,-0.0536,-0.0528,-0.0525,-0.052,-0.0517,-0.0511,-0.0506,-0.0501,-0.0497,-0.0492,-0.0491,-0.0491,-0.0493,-0.0497,-0.0496,-0.0485,-0.0491,-0.049,-0.049,-0.049,-0.049,-0.0569,-0.0567,-0.0561,-0.0556,-0.0552,-0.0548,-0.0545,-0.054,-0.0536,-0.0531,-0.0527,-0.0523,-0.0517,-0.051,-0.0506,-0.0503,-0.0501,-0.0501,-0.0501,-0.0502,-0.0503,-0.0497,-0.0502,-0.0502,-0.0502,-0.0502,-0.0502,0,-0.0574,-0.057,-0.0566,-0.0559,-0.0556,-0.0552,-0.0547,-0.0544,-0.0541,-0.0536,-0.0533,-0.0528,-0.0524,-0.0518,-0.0514,-0.0513,-0.0511,-0.0513,-0.0513,-0.0512,-0.0505,-0.0505,-0.0515,-0.0515,-0.0515,-0.0515,-0.0515,-0.0515,-0.0575,-0.0572,-0.0569,-0.0564,-0.056,-0.0556,-0.0554,-0.055,-0.0547,-0.0542,-0.0539,-0.0535,-0.053,-0.0526,-0.0523,-0.0521,-0.0521,-0.0523,-0.0521,-0.0514,-0.0513,-0.0511,-0.0512,-0.0522,-0.0522,-0.0528,-0.0528,-0.0528]}]]